Location: Artiguedieu
(43.5000°N, 0.5454°E)
Time: 13:02:40
(UTC+00:00)

PSLV R/B - Pass Details

Date: 06 December 2020
Orbit: 503 x 578 km, 97.8° (Epoch: 27 January)

Event Time Altitude Azimuth Distance (km) Brightness Sun altitude
Rises 06:17:11 0° 5° (N) 2,670 7.2 -10.5°
Reaches altitude 10° 06:19:23 10° 358° (N) 1,764 6.2 -10.1°
Maximum altitude 06:22:57 40° 289° (WNW) 767 4.1 -9.5°
Drops below altitude 10° 06:26:26 10° 218° (SW) 1,722 6.2 -8.9°
Sets 06:28:34 0° 211° (SSW) 2,596 7.2 -8.6°
